Airfield :
LOGIN :

Register | Disclaimer

   EN    FR    IT 

 










Legend :    VFR   Marginal VFR   IFR   Intensive IFR   Very Intensive IFR
Visi :
Ceiling :
>= 8 km
>= 3000ft
5 to 8 km
1000 to 3000 ft
1500m to 5 km
500 to 1000 ft
800 to 1500m
200 to 500 ft
< 800m
< 200 ft
Symbols :   Thunderstorms  Fog  Heavy snow  Heavy precipitations  Wind > 20 kt
SIGMETs :     Misc.  Thunderstorms  Icing  Turbulence  Mountain Waves  Volcanic Ashes






- Airport Elevation : 1276 ft
- IATA code : STR


EDDS - Stuttgart

CURRENT METAR :
  • 130520Z VRB01KT CAVOK 16/09 Q1023 NOSIG

EXPIRED METARs :
  • 130450Z VRB02KT CAVOK 14/08 Q1023 NOSIG
  • 130420Z VRB01KT CAVOK 12/07 Q1023
  • 130350Z 28002KT CAVOK 11/07 Q1023
  • 130320Z VRB01KT CAVOK 11/07 Q1023
  • 130250Z 28004KT CAVOK 11/07 Q1023

TAF TAF EDDS
Valid from the 13 at 00:00 until the 14 at 00:00 UTC


122300Z 1300/1324 06004KT CAVOK



MET'MAP, your aeronautical weather chart ! - Copyright ORBIFLY December 2007 - Disclaimer

ORBIFLY MET'MAP TEAM :

Programming & Development : Alexandra Zaïnal
Concept & original design : Baudouin d'Aumeries
Assistance for programming : Marc-Olivier Méhu
Technical & hardware support : Manuel Goepfert

Contact : metmap@orbifly.com




SOURCES & CREDITS :

   NOAA